Flag for U.S.A. Weather past 2 weeks in Napili-Honokowai, Hawaii, U.S.A.

Now
79 °F

Mostly cloudy.


Feels Like: 82 °F
Forecast: 76 / 84 °F
Wind: 9 mph from Northeast

Location: Kahului Airport

Current Time: Aug 5, 2015 at 12:35:57 AM

Latest Report: Aug 4, 2015 at 11:54 PM


Visibility: 10 mi

Pressure: 29.91 "Hg

Humidity: 79%

Dew point: 72 °F

Location of Napili-HonokowaiLocation

Historic Weather in Napili-Honokowai — Graph

°F

Napili-Honokowai temperature yesterday

Maximum temperature yesterday: 90 °F (at 1:54 PM)
Minimum temperature yesterday: 76 °F (at 4:54 AM)
Average temperature yesterday: 82 °F

Past Weeks' High & Low Weather Summary

 TemperatureHumidityPressure
High93 °F (Jul 28, 12:07 PM)88% (Jul 29, 4:54 AM)30.05 "Hg (Jul 29, 4:54 AM)
Low70 °F (Jul 26, 5:54 AM)44% (Jul 27, 12:54 PM)29.83 "Hg (Aug 4, 4:54 PM)
Average82 °F66%29.96 "Hg
* Reported Jul 20 10:54 PM — Aug 4 10:54 PM, Napili-Honokowai, Weather by CustomWeather, © 2015

Note: Actual official high and low records may vary slightly from our data, if they occured in-between our weather recording intervals... More about our weather records

Advertising

Napili-Honokowai weather history for previous 24 hours

 ConditionsComfort  
Time TempWeatherWind HumidityBarometerVisibility
10:54 PM
Tue, Aug 4
81 °FOvercast.13 mph72%29.92 "Hg10 mi
9:54 PM80 °FClear.12 mph76%29.91 "Hg10 mi
8:54 PM80 °FPassing clouds.12 mph74%29.90 "Hg10 mi
7:54 PM81 °FPassing clouds.13 mph70%29.87 "Hg10 mi
6:54 PM81 °FScattered clouds.18 mph69%29.86 "Hg10 mi
5:54 PM84 °FScattered clouds.18 mph65%29.84 "Hg10 mi
4:54 PM86 °FScattered clouds.24 mph67%29.83 "Hg10 mi
3:54 PM88 °FScattered clouds.20 mph61%29.84 "Hg10 mi
2:54 PM88 °FScattered clouds.14 mph57%29.85 "Hg10 mi
1:54 PM90 °FScattered clouds.26 mph57%29.86 "Hg10 mi
12:54 PM89 °FScattered clouds.20 mph59%29.87 "Hg10 mi
11:54 AM87 °FBroken clouds.21 mph61%29.88 "Hg10 mi
10:54 AM88 °FScattered clouds.18 mph61%29.89 "Hg10 mi
9:54 AM86 °FScattered clouds.18 mph63%29.90 "Hg10 mi
8:54 AM85 °FScattered clouds.14 mph65%29.91 "Hg10 mi
7:54 AM82 °FScattered clouds.9 mph70%29.91 "Hg10 mi
6:54 AM79 °FScattered clouds.7 mph77%29.90 "Hg10 mi
5:54 AM76 °FPassing clouds.3 mph82%29.88 "Hg10 mi
4:54 AM76 °FClear.6 mph85%29.87 "Hg10 mi
3:54 AM77 °FPassing clouds.No wind82%29.87 "Hg10 mi
2:54 AM78 °FClear.7 mph79%29.87 "Hg10 mi
2:26 AM79 °FPassing clouds.7 mph79%29.86 "Hg10 mi
1:54 AM79 °FPassing clouds.8 mph79%29.88 "Hg10 mi
1:24 AM79 °FPartly cloudy.9 mph79%29.87 "Hg10 mi
1:06 AM79 °FMostly cloudy.8 mph79%29.88 "Hg10 mi
12:54 AM79 °FMostly cloudy.8 mph79%29.89 "Hg10 mi
Weather by CustomWeather, © 2015

See weather overviewHow to use our weather pages